Find Kosmos-2390

NORAD ID: 27464 Int'l Des: 2002-036 Owner: KVR Country: RU operational
LEOCIRCULARPOLAR

当前视图

正在加载3D地球...

About Kosmos-2390

Kosmos-2390 (NORAD 27464) is a satellite launched Jul 8, 2002 by KVR of RU. It operates in LEO, CIRCULAR, POLAR orbit with a mass of 225.00 kg.

即将过境

Passes for default location (London). Set your location on the main map for personalized predictions.

高度历史

Loading altitude history...

两行轨道根数

1 27464U 02036A 26195.13146036 .00000018 00000-0 60206-4 0 9998
2 27464 82.4863 328.1051 0025292 197.3434 162.6785 12.44624346 91020
Epoch: Jul 14, 2026 • Age: 6 hours

当前状态

高度 1508.7 km
远地点 / 近地点 N/A
速度 7.10 km/s
星下点 4.65°N, 98.2°W
发射日期 Jul 8, 2002
运行时间 24 years
类型 other

技术详情

分类 Payload
质量 225.00 kg
干质量 225.00 kg
总质量 225.00 kg
长度 1.60 m
直径 0.80 m
跨度 7.00 m
形状 Cyl + Ant
制造商 NPOPMR
平台类型 Strela-3
阶段状态 In Orbit
所有者/国家 KVR/RU

Most Searched